Regional Weather Roundup
Issued by NWS Midland/Odessa, TX

Skip options and go directly to product.
Home | Oldest Version | Previous Version | Current Version | All | Text Only | Save Text | Print | Product List | Glossary On

Skip product version selection by date and time.   
453
ASUS44 KMAF 251210
RWRMAF
MIDLAND AREA WEATHER ROUNDUP
NATIONAL WEATHER SERVICE MIDLAND TX
600 AM CST SUN JAN 25 2015

...IN SOUTHWEST TEXAS AND SOUTHEAST NEW MEXICO...

CITY           SKY/WX    TMP DP  RH WIND       PRES   REMARKS
ALPINE         MOCLDY    40  16  37 SW8       30.20S WCI  35
ANDREWS        FAIR      34  28  77 N8        30.14R WCI  28
ARTESIA        MOCLDY    32  30  93 N7        30.19R WCI  26
BIG SPRING     CLEAR     34  29  80 CALM      30.14R
CARLSBAD       CLEAR     34  26  72 NW7       30.15R WCI  28
DRYDEN           N/A     47  27  45 W15G25    30.09R
FORT STOCKTON  CLEAR     38  25  59 W7        30.13R WCI  33
GUAD PASS      NOT AVBL
HOBBS          MOCLDY    32  28  86 NW9       30.16R WCI  24
MARFA          MOCLDY    28  21  74 CALM      30.17S
MIDLAND AIRPK  CLEAR     37  29  74 NW7       30.14R WCI  31
MIDLAND INTL   CLEAR     36  28  73 NW6       30.13R WCI  31
ODESSA         CLEAR     39  26  59 NW9       30.13R WCI  33
PECOS          CLEAR     37  25  63 N8        30.15R WCI  30
PRESIDIO       FAIR      41  32  71 CALM      30.19S
SEMINOLE       PTCLDY    37  28  72 N8        30.16R WCI  30
SNYDER         FAIR     N/A N/A N/A N6        30.10R
WINK           PTCLDY    30  24  78 NW8       30.13R WCI  22
$$
...OTHER STATIONS IN TEXAS...

CITY           SKY/WX    TMP DP  RH WIND       PRES   REMARKS
ABILENE        PTCLDY    41  31  67 NW8       30.07R WCI  36
AMARILLO       CLEAR     39  24  55 NW15      30.16R WCI  31
AUSTIN         CLEAR     36  34  92 S7        30.00F WCI  30
BROWNSVILLE    PTCLDY    46  42  86 SW5       30.12S
CORPUS CHRISTI MOCLDY    41  38  89 S5        30.10R WCI  38
DALLAS FTW     CLEAR     48  35  60 NW13      29.94R
DEL RIO        MOCLDY    40  36  86 W6        30.10R WCI  36
EL PASO        MOCLDY    33  26  75 N3        30.21R
HOUSTON INT    PTCLDY    44  37  76 SW3       30.03S
LUBBOCK        PTCLDY    33  28  81 N9        30.11S WCI  25
SAN ANGELO     CLEAR     38  32  79 W5        30.07R WCI  34
SAN ANTONIO    PTCLDY    39  36  89 N5        30.04F WCI  36
WACO           CLEAR     36  34  92 CALM      29.97S
WICHITA FALLS  NOT AVBL
$$
...OTHER LOCATIONS IN NEW MEXICO...

CITY           SKY/WX    TMP DP  RH WIND       PRES   REMARKS
ALAMAGORDO     MOCLDY    23  21  93 SE6       30.19F WCI  16
ALBUQUERQUE    PTCLDY    27  19  72 CALM      30.26R
CANNON AFB     CLEAR     34  27  75 NE12      30.15F WCI  25
CLOVIS         CLEAR     32  25  74 NE9       30.16S WCI  24
HOLLOMAN AFB   MOCLDY    26  23  89 SE5       30.18S WCI  20
ROSWELL        PTCLDY    31  25  78 N8        30.18R WCI  23
RUIDOSO        PTCLDY    36   9  32 NW7       30.23R WCI  30
SANTA FE       CLEAR     27  17  66 N10G21    30.23S WCI  17
TRUTH OR CONSE MOCLDY    31  21  66 NW8       30.21F WCI  23
TUCUMCARI      MIX PCPN  23  20  88 W6        30.18R WCI  16
$$

USA.gov is the U.S. government's official web portal to all federal, state and local government web resources and services.